Date String (YYYY-MM-DD hh:mm:ss) UTC,Instrument flags,Ambient pressure (hPa),Sample flow (lpm),Bypass flow (lpm),Sample temperature (°C),Ambient temperature (°C),ASC tube jacket temperature (°C),LED temperature (°C),Box temperature (°C),Sample RH (%),Span deviation,Mass concentration (μg/m³),Mass concentration (μg/m³),Mass concentration (μg/m³)
DateTimeUTC,F1_M11,P_M11,Q1_M11,Q2_M11,T1_M11,T2_M11,T3_M11,T4_M11,T5_M11,U1_M11,ZSPAN_M11,X2_M11,X0_M11,X1_M11
2023-02-22 09:00:00,,0806.3,5.00,0.00,22.5,20.7,00.0,31.4,24.1,11.0,0000.0,0003.61,0005.68,0003.32
2023-02-22 09:01:00,,0806.3,5.03,0.00,22.5,20.7,00.0,31.3,24.1,10.9,0000.0,0003.61,0005.94,0003.31
2023-02-22 09:02:00,,0806.2,4.98,0.00,22.5,20.6,00.0,31.3,24.1,10.9,0000.0,0003.62,0005.97,0003.31
2023-02-22 09:03:00,,0806.2,5.00,0.00,22.4,20.7,00.0,31.3,24.1,10.9,0000.0,0003.63,0005.93,0003.32
2023-02-22 09:04:00,,0806.2,5.00,0.00,22.5,21.6,00.0,31.3,24.3,10.9,0000.0,0003.64,0005.96,0003.33
2023-02-22 09:05:00,,0806.2,5.02,0.00,22.6,22.5,00.0,31.3,24.5,10.8,0000.0,0003.62,0005.89,0003.32
2023-02-22 09:06:00,,0806.2,4.99,0.00,22.7,22.8,00.0,31.3,24.6,10.7,0000.0,0003.62,0005.90,0003.32
2023-02-22 09:07:00,,0806.2,4.98,0.00,22.7,22.3,00.0,31.3,24.5,10.7,0000.0,0003.61,0005.86,0003.34
2023-02-22 09:08:00,,0806.3,5.00,0.00,22.7,21.9,00.0,31.4,24.4,10.7,0000.0,0003.63,0006.04,0003.34
2023-02-22 09:09:00,,0806.2,5.02,0.00,22.7,21.6,00.0,31.4,24.3,10.7,0000.0,0003.63,0005.73,0003.33
2023-02-22 09:10:00,,0806.2,4.99,0.00,22.6,21.4,00.0,31.4,24.3,10.7,0000.0,0003.63,0005.74,0003.33
2023-02-22 09:11:00,,0806.2,5.00,0.00,22.6,21.2,00.0,31.4,24.3,10.8,0000.0,0003.65,0005.78,0003.35
2023-02-22 09:12:00,,0806.2,4.99,0.00,22.6,21.0,00.0,31.4,24.1,10.8,0000.0,0003.65,0005.49,0003.35
2023-02-22 09:13:00,,0806.2,5.01,0.00,22.5,20.9,00.0,31.3,24.1,10.8,0000.0,0003.65,0005.43,0003.36
2023-02-22 09:14:00,,0806.2,5.01,0.00,22.5,20.8,00.0,31.3,24.1,10.8,0000.0,0003.63,0005.37,0003.36
2023-02-22 09:15:00,,0806.2,5.00,0.00,22.5,20.7,00.0,31.3,24.1,10.8,0000.0,0003.64,0005.37,0003.36
2023-02-22 09:16:00,,0806.2,5.00,0.00,22.5,20.6,00.0,31.3,24.0,10.8,0000.0,0003.69,0005.56,0003.37
2023-02-22 09:17:00,,0806.2,5.00,0.00,22.4,20.6,00.0,31.3,23.9,10.8,0000.0,0003.73,0005.76,0003.38
2023-02-22 09:18:00,,0806.2,5.00,0.00,22.4,21.2,00.0,31.3,24.1,10.8,0000.0,0003.72,0005.75,0003.38
2023-02-22 09:19:00,,0806.2,4.98,0.00,22.5,22.2,00.0,31.2,24.4,10.8,0000.0,0003.72,0005.63,0003.38
2023-02-22 09:20:00,,0806.2,5.00,0.00,22.6,22.9,00.0,31.3,24.6,10.7,0000.0,0003.73,0005.59,0003.39
2023-02-22 09:21:00,,0806.2,4.98,0.00,22.7,22.5,00.0,31.3,24.5,10.7,0000.0,0003.74,0005.62,0003.40
2023-02-22 09:22:00,,0806.2,4.99,0.00,22.7,22.1,00.0,31.3,24.4,10.6,0000.0,0003.76,0005.72,0003.41
2023-02-22 09:23:00,,0806.2,5.00,0.00,22.6,21.7,00.0,31.3,24.3,10.6,0000.0,0003.80,0005.91,0003.41
2023-02-22 09:24:00,,0806.2,5.00,0.00,22.6,21.4,00.0,31.3,24.2,10.6,0000.0,0003.82,0006.00,0003.42
2023-02-22 09:25:00,,0806.2,5.00,0.00,22.6,21.2,00.0,31.3,24.2,10.7,0000.0,0003.84,0006.04,0003.43
2023-02-22 09:26:00,,0806.2,4.98,0.00,22.6,21.1,00.0,31.3,24.2,10.7,0000.0,0003.85,0006.07,0003.44
2023-02-22 09:27:00,,0806.2,5.01,0.00,22.5,20.9,00.0,31.3,24.1,10.7,0000.0,0003.84,0006.05,0003.44
2023-02-22 09:28:00,,0806.2,4.99,0.00,22.5,20.8,00.0,31.3,24.0,10.7,0000.0,0003.84,0006.06,0003.44
2023-02-22 09:29:00,,0806.2,4.97,0.00,22.5,20.7,00.0,31.3,24.0,10.7,0000.0,0003.86,0006.19,0003.44
2023-02-22 09:30:00,,0806.2,4.96,0.00,22.4,20.6,00.0,31.3,24.0,10.7,0000.0,0003.90,0006.31,0003.46
2023-02-22 09:31:00,,0806.2,4.98,0.00,22.4,20.5,00.0,31.3,23.9,10.7,0000.0,0003.90,0006.29,0003.47
2023-02-22 09:32:00,,0806.2,5.02,0.00,22.4,20.8,00.0,31.2,24.0,10.7,0000.0,0003.93,0006.37,0003.47
2023-02-22 09:33:00,,0806.2,4.99,0.00,22.4,21.8,00.0,31.2,24.2,10.6,0000.0,0003.95,0006.46,0003.48
2023-02-22 09:34:00,,0806.2,5.00,0.00,22.6,22.7,00.0,31.2,24.5,10.5,0000.0,0003.93,0006.43,0003.48
2023-02-22 09:35:00,,0806.2,4.99,0.00,22.7,22.8,00.0,31.3,24.5,10.5,0000.0,0003.92,0006.43,0003.48
2023-02-22 09:36:00,,0806.2,5.02,0.00,22.7,22.3,00.0,31.3,24.5,10.4,0000.0,0003.95,0006.70,0003.49
2023-02-22 09:37:00,,0806.2,5.01,0.00,22.6,21.9,00.0,31.3,24.4,10.4,0000.0,0003.97,0006.87,0003.51
2023-02-22 09:38:00,,0806.2,5.00,0.00,22.6,21.6,00.0,31.3,24.3,10.4,0000.0,0003.98,0006.86,0003.52
2023-02-22 09:39:00,,0806.2,5.00,0.00,22.6,21.3,00.0,31.3,24.2,10.4,0000.0,0003.97,0006.78,0003.53
2023-02-22 09:40:00,,0806.2,5.00,0.00,22.6,21.1,00.0,31.3,24.2,10.4,0000.0,0003.99,0006.88,0003.54
2023-02-22 09:41:00,,0806.2,5.01,0.00,22.5,21.0,00.0,31.3,24.1,10.5,0000.0,0003.96,0006.76,0003.54
2023-02-22 09:42:00,,0806.2,5.01,0.00,22.5,20.8,00.0,31.3,24.0,10.5,0000.0,0003.95,0006.73,0003.55
2023-02-22 09:43:00,,0806.3,5.00,0.00,22.4,20.7,00.0,31.3,24.0,10.5,0000.0,0003.92,0006.73,0003.55
2023-02-22 09:44:00,,0806.3,5.01,0.00,22.4,20.6,00.0,31.3,24.0,10.5,0000.0,0003.89,0006.57,0003.55
2023-02-22 09:45:00,,0806.2,5.01,0.00,22.4,20.5,00.0,31.2,24.0,10.5,0000.0,0003.87,0006.45,0003.55
2023-02-22 09:46:00,,0806.3,4.98,0.00,22.3,20.6,00.0,31.2,23.9,10.6,0000.0,0003.90,0006.63,0003.56
2023-02-22 09:47:00,,0806.3,5.02,0.00,22.4,21.3,00.0,31.2,24.2,10.6,-001.3,0003.89,0006.48,0003.56
2023-02-22 09:48:00,,0806.3,4.99,0.00,22.5,22.3,00.0,31.2,24.4,10.4,-001.7,0003.86,0006.28,0003.54
2023-02-22 09:49:00,,0806.2,4.99,0.00,22.6,22.8,00.0,31.2,24.6,10.3,-001.9,0003.84,0006.33,0003.53
2023-02-22 09:50:00,,0806.2,4.97,0.00,22.6,22.4,00.0,31.3,24.5,10.2,-002.5,0003.84,0006.69,0003.52
2023-02-22 09:51:00,,0806.2,4.99,0.00,22.6,22.0,00.0,31.3,24.4,10.2,-002.4,0003.82,0006.64,0003.49
2023-02-22 09:52:00,,0806.2,4.99,0.00,22.6,21.7,00.0,31.3,24.3,10.2,-002.5,0003.80,0006.58,0003.48
2023-02-22 09:53:00,,0806.2,4.99,0.00,22.6,21.5,00.0,31.3,24.3,10.1,-002.6,0003.80,0006.62,0003.47
2023-02-22 09:54:00,,0806.2,5.01,0.00,22.6,21.2,00.0,31.3,24.2,10.1,-002.6,0003.80,0006.49,0003.46
2023-02-22 09:55:00,,0806.1,5.01,0.00,22.5,21.1,00.0,31.3,24.2,10.1,-002.7,0003.80,0006.51,0003.46
2023-02-22 09:56:00,,0806.1,5.00,0.00,22.5,21.0,00.0,31.3,24.1,10.1,-002.1,0003.80,0006.55,0003.45
2023-02-22 09:57:00,,0806.1,4.99,0.00,22.5,20.9,00.0,31.3,24.1,10.1,0000.0,0003.75,0006.28,0003.44
2023-02-22 09:58:00,,0806.2,5.00,0.00,22.5,20.8,00.0,31.3,24.1,10.0,0000.0,0003.73,0006.17,0003.43
2023-02-22 09:59:00,,0806.2,4.99,0.00,22.4,20.8,00.0,31.3,24.1,10.0,0000.0,0003.77,0006.27,0003.44
